| time (UTC) | temp C | wind direction | speed KPH | gust KPH | rain 1hr cm | rain 24hr cm | rain mn cm | humidity % | barometer mb |
| 20260504181506 | 14 | 242 | 1.6 | 9.7 | 0.00 | 0.00 | 0.00 | 79 | 1011.5 |
| 20260504180506 | 14 | 252 | 0.0 | 4.8 | 0.00 | 0.00 | 0.00 | 80 | 1011.5 |
| 20260504180006 | 13 | 249 | 0.0 | 12.9 | 0.00 | 0.00 | 0.00 | 80 | 1012.5 |
| 20260504175506 | 13 | 217 | 3.2 | 12.9 | 0.00 | 0.00 | 0.00 | 80 | 1012.5 |
| 20260504175006 | 13 | 214 | 1.6 | 19.3 | 0.00 | 0.00 | 0.00 | 81 | 1012.5 |
| 20260504174507 | 13 | 204 | 4.8 | 19.3 | 0.00 | 0.00 | 0.00 | 81 | 1012.5 |
| 20260504174006 | 13 | 197 | 1.6 | 9.7 | 0.00 | 0.00 | 0.00 | 81 | 1012.5 |
| 20260504173506 | 13 | 215 | 0.0 | 9.7 | 0.00 | 0.00 | 0.00 | 82 | 1012.5 |
| 20260504173007 | 13 | 149 | 0.0 | 12.9 | 0.00 | 0.00 | 0.00 | 82 | 1012.5 |
| 20260504172506 | 13 | 219 | 0.0 | 12.9 | 0.00 | 0.00 | 0.00 | 82 | 1012.5 |
| 20260504172008 | 13 | 161 | 3.2 | 19.3 | 0.00 | 0.00 | 0.00 | 83 | 1012.5 |
| 20260504171507 | 13 | 191 | 3.2 | 19.3 | 0.00 | 0.00 | 0.00 | 82 | 1011.5 |
| 20260504171007 | 13 | 160 | 3.2 | 9.7 | 0.00 | 0.00 | 0.00 | 83 | 1011.5 |
| 20260504170506 | 13 | 222 | 1.6 | 9.7 | 0.00 | 0.00 | 0.00 | 83 | 1011.5 |
| 20260504151006 | 12 | 167 | 3.2 | 19.3 | 0.00 | 0.00 | 0.00 | 86 | 1012.5 |
| 20260504150506 | 11 | 230 | 4.8 | 11.3 | 0.00 | 0.00 | 0.00 | 86 | 1012.5 |
| 20260504141006 | 11 | 225 | 1.6 | 9.7 | 0.00 | 0.00 | 0.00 | 88 | 1011.5 |
| 20260504130506 | 11 | 206 | 4.8 | 12.9 | 0.00 | 0.00 | 0.00 | 87 | 1010.5 |
| 20260504110506 | 14 | 222 | 8.0 | 14.5 | 0.00 | 0.00 | 0.00 | 72 | 1009.5 |
| 20260504081505 | 20 | 305 | 0.0 | 0.0 | 0.00 | 0.00 | 0.00 | 43 | 1008.5 |
| 20260504081006 | 20 | 305 | 0.0 | 0.0 | 0.00 | 0.00 | 0.00 | 43 | 1008.5 |
| 20260504050505 | 23 | 260 | 0.0 | 0.0 | 0.00 | 0.00 | 0.00 | 39 | 1008.5 |
| 20260504050005 | 23 | 260 | 0.0 | 0.0 | 0.00 | 0.00 | 0.00 | 39 | 1008.5 |
| 20260504045505 | 23 | 282 | 0.0 | 0.0 | 0.00 | 0.00 | 0.00 | 39 | 1008.5 |
| 20260504045004 | 23 | 305 | 0.0 | 0.0 | 0.00 | 0.00 | 0.00 | 39 | 1008.5 |
| 20260504044005 | 23 | 256 | 0.0 | 0.0 | 0.00 | 0.00 | 0.00 | 39 | 1007.5 |
| 20260504043505 | 23 | 265 | 0.0 | 0.0 | 0.00 | 0.00 | 0.00 | 39 | 1007.5 |
| 20260504043005 | 23 | 292 | 0.0 | 0.0 | 0.00 | 0.00 | 0.00 | 39 | 1007.5 |
| 20260504042505 | 23 | 260 | 0.0 | 0.0 | 0.00 | 0.00 | 0.00 | 38 | 1007.5 |
| 20260504042005 | 24 | 260 | 0.0 | 0.0 | 0.00 | 0.00 | 0.00 | 38 | 1007.5 |
| 20260504041505 | 24 | 260 | 0.0 | 0.0 | 0.00 | 0.00 | 0.00 | 38 | 1007.5 |
| 20260504041005 | 24 | 238 | 0.0 | 0.0 | 0.00 | 0.00 | 0.00 | 38 | 1007.5 |
| 20260504040505 | 24 | 238 | 0.0 | 0.0 | 0.00 | 0.00 | 0.00 | 37 | 1007.5 |
| 20260504040004 | 24 | 238 | 0.0 | 0.0 | 0.00 | 0.00 | 0.00 | 37 | 1007.5 |
| 20260504035504 | 25 | 238 | 0.0 | 0.0 | 0.00 | 0.00 | 0.00 | 37 | 1007.5 |
| 20260504035006 | 25 | 238 | 0.0 | 0.0 | 0.00 | 0.00 | 0.00 | 36 | 1007.5 |
| 20260504034505 | 25 | 238 | 0.0 | 0.0 | 0.00 | 0.00 | 0.00 | 36 | 1006.5 |
| 20260504034004 | 25 | 238 | 0.0 | 0.0 | 0.00 | 0.00 | 0.00 | 36 | 1006.5 |
| 20260504033505 | 25 | 238 | 0.0 | 0.0 | 0.00 | 0.00 | 0.00 | 36 | 1006.5 |
| 20260504033005 | 25 | 238 | 0.0 | 0.0 | 0.00 | 0.00 | 0.00 | 36 | 1006.5 |
| 20260504032505 | 25 | 238 | 0.0 | 0.0 | 0.00 | 0.00 | 0.00 | 36 | 1006.5 |
| 20260504032005 | 25 | 238 | 0.0 | 0.0 | 0.00 | 0.00 | 0.00 | 36 | 1006.5 |
| 20260504031505 | 26 | 238 | 0.0 | 0.0 | 0.00 | 0.00 | 0.00 | 35 | 1006.5 |
| 20260504030504 | 26 | 238 | 0.0 | 0.0 | 0.00 | 0.00 | 0.00 | 35 | 1006.5 |
| 20260504030005 | 26 | 305 | 0.0 | 0.0 | 0.00 | 0.00 | 0.00 | 35 | 1006.5 |
| 20260504025505 | 26 | 305 | 0.0 | 0.0 | 0.00 | 0.00 | 0.00 | 35 | 1006.5 |
| 20260504025004 | 26 | 300 | 0.0 | 0.0 | 0.00 | 0.00 | 0.00 | 35 | 1006.5 |
| 20260504024006 | 26 | 238 | 0.0 | 0.0 | 0.00 | 0.00 | 0.00 | 35 | 1006.5 |
| 20260504023504 | 27 | 238 | 0.0 | 0.0 | 0.00 | 0.00 | 0.00 | 34 | 1006.5 |
| 20260504023004 | 27 | 305 | 0.0 | 0.0 | 0.00 | 0.00 | 0.00 | 35 | 1006.5 |
| 20260504022505 | 27 | 305 | 0.0 | 0.0 | 0.00 | 0.00 | 0.00 | 34 | 1006.5 |
| 20260504022004 | 27 | 305 | 0.0 | 0.0 | 0.00 | 0.00 | 0.00 | 34 | 1006.5 |
| 20260504021505 | 27 | 305 | 0.0 | 0.0 | 0.00 | 0.00 | 0.00 | 34 | 1006.5 |
| 20260504021005 | 27 | 305 | 0.0 | 0.0 | 0.00 | 0.00 | 0.00 | 34 | 1006.5 |
| 20260504020505 | 27 | 260 | 0.0 | 0.0 | 0.00 | 0.00 | 0.00 | 34 | 1006.5 |
| 20260504020005 | 28 | 200 | 0.0 | 0.0 | 0.00 | 0.00 | 0.00 | 34 | 1006.5 |
| 20260504015505 | 28 | 305 | 0.0 | 0.0 | 0.00 | 0.00 | 0.00 | 33 | 1006.5 |
| 20260504015004 | 28 | 305 | 0.0 | 0.0 | 0.00 | 0.00 | 0.00 | 33 | 1006.5 |
| 20260504014505 | 28 | 305 | 0.0 | 0.0 | 0.00 | 0.00 | 0.00 | 34 | 1006.5 |
| 20260504014005 | 28 | 260 | 0.0 | 0.0 | 0.00 | 0.00 | 0.00 | 33 | 1006.5 |
| 20260504013005 | 28 | 305 | 0.0 | 0.0 | 0.00 | 0.00 | 0.00 | 33 | 1006.5 |
| 20260504012504 | 29 | 238 | 0.0 | 0.0 | 0.00 | 0.00 | 0.00 | 33 | 1006.5 |
| 20260504012004 | 29 | 305 | 0.0 | 0.0 | 0.00 | 0.00 | 0.00 | 33 | 1006.5 |
| 20260504011504 | 29 | 260 | 0.0 | 0.0 | 0.00 | 0.00 | 0.00 | 33 | 1006.5 |
| 20260504011004 | 29 | 260 | 0.0 | 0.0 | 0.00 | 0.00 | 0.00 | 33 | 1006.5 |
| 20260504010504 | 29 | 156 | 0.0 | 0.0 | 0.00 | 0.00 | 0.00 | 33 | 1006.5 |
| 20260504010004 | 30 | 114 | 0.0 | 0.0 | 0.00 | 0.00 | 0.00 | 33 | 1007.5 |
| 20260504005504 | 30 | 305 | 0.0 | 0.0 | 0.00 | 0.00 | 0.00 | 33 | 1007.5 |
| 20260504005004 | 30 | 305 | 0.0 | 0.0 | 0.00 | 0.00 | 0.00 | 32 | 1007.5 |
| 20260504004504 | 30 | 62 | 0.0 | 0.0 | 0.00 | 0.00 | 0.00 | 32 | 1007.5 |
| 20260504004004 | 30 | 307 | 0.0 | 0.0 | 0.00 | 0.00 | 0.00 | 32 | 1007.5 |
| 20260504003504 | 30 | 254 | 0.0 | 0.0 | 0.00 | 0.00 | 0.00 | 33 | 1007.5 |
| 20260504002504 | 30 | 282 | 0.0 | 0.0 | 0.00 | 0.00 | 0.00 | 33 | 1007.5 |
| 20260504002004 | 30 | 35 | 0.0 | 0.0 | 0.00 | 0.00 | 0.00 | 33 | 1007.5 |
| 20260504001504 | 30 | 102 | 0.0 | 0.0 | 0.00 | 0.00 | 0.00 | 33 | 1007.5 |
| 20260504001005 | 30 | 35 | 0.0 | 0.0 | 0.00 | 0.00 | 0.00 | 33 | 1007.5 |
| 20260503235504 | 31 | 305 | 0.0 | 0.0 | 0.00 | 0.00 | 0.00 | 32 | 1007.5 |
| 20260503235005 | 31 | 95 | 0.0 | 0.0 | 0.00 | 0.00 | 0.00 | 32 | 1007.5 |
| 20260503234504 | 31 | 305 | 0.0 | 0.0 | 0.00 | 0.00 | 0.00 | 32 | 1007.5 |
| 20260503234006 | 31 | 86 | 0.0 | 0.0 | 0.00 | 0.00 | 0.00 | 33 | 1007.5 |
| 20260503233004 | 32 | 96 | 0.0 | 0.0 | 0.00 | 0.00 | 0.00 | 33 | 1008.5 |
| 20260503232504 | 32 | 80 | 0.0 | 0.0 | 0.00 | 0.00 | 0.00 | 33 | 1008.5 |
| 20260503232005 | 32 | 72 | 0.0 | 0.0 | 0.00 | 0.00 | 0.00 | 32 | 1008.5 |
| 20260503231504 | 32 | 52 | 0.0 | 0.0 | 0.00 | 0.00 | 0.00 | 32 | 1008.5 |
| 20260503231004 | 32 | 38 | 0.0 | 0.0 | 0.00 | 0.00 | 0.00 | 33 | 1008.5 |
| 20260503230504 | 32 | 44 | 0.0 | 0.0 | 0.00 | 0.00 | 0.00 | 32 | 1008.5 |
| 20260503230004 | 32 | 125 | 0.0 | 0.0 | 0.00 | 0.00 | 0.00 | 32 | 1008.5 |
| 20260503225504 | 32 | 152 | 0.0 | 0.0 | 0.00 | 0.00 | 0.00 | 31 | 1008.5 |
| 20260503224504 | 32 | 260 | 0.0 | 0.0 | 0.00 | 0.00 | 0.00 | 34 | 1008.5 |
| 20260503224004 | 32 | 35 | 0.0 | 0.0 | 0.00 | 0.00 | 0.00 | 34 | 1008.5 |
| 20260503223004 | 32 | 300 | 0.0 | 0.0 | 0.00 | 0.00 | 0.00 | 34 | 1008.5 |
| 20260503222004 | 32 | 305 | 0.0 | 0.0 | 0.00 | 0.00 | 0.00 | 36 | 1008.5 |
| 20260503221504 | 32 | 305 | 0.0 | 0.0 | 0.00 | 0.00 | 0.00 | 37 | 1008.5 |
| 20260503221003 | 32 | 215 | 0.0 | 0.0 | 0.00 | 0.00 | 0.00 | 37 | 1008.5 |
| 20260503220505 | 32 | 43 | 0.0 | 0.0 | 0.00 | 0.00 | 0.00 | 38 | 1008.5 |
| 20260503220004 | 32 | 56 | 0.0 | 0.0 | 0.00 | 0.00 | 0.00 | 38 | 1008.5 |
| 20260503215004 | 31 | 35 | 0.0 | 0.0 | 0.00 | 0.00 | 0.00 | 40 | 1008.5 |
| 20260503214504 | 31 | 35 | 0.0 | 0.0 | 0.00 | 0.00 | 0.00 | 40 | 1008.5 |
| 20260503214003 | 31 | 35 | 0.0 | 0.0 | 0.00 | 0.00 | 0.00 | 40 | 1008.5 |
| 20260503213504 | 31 | 215 | 0.0 | 0.0 | 0.00 | 0.00 | 0.00 | 41 | 1008.5 |
| 20260503213004 | 31 | 59 | 0.0 | 0.0 | 0.00 | 0.00 | 0.00 | 40 | 1008.5 |
| 20260503212504 | 31 | 110 | 0.0 | 0.0 | 0.00 | 0.00 | 0.00 | 41 | 1008.5 |
| 20260503212004 | 30 | 125 | 0.0 | 0.0 | 0.00 | 0.00 | 0.00 | 42 | 1008.5 |
| 20260503211504 | 30 | 88 | 0.0 | 0.0 | 0.00 | 0.00 | 0.00 | 42 | 1008.5 |
| 20260503211003 | 30 | 305 | 0.0 | 0.0 | 0.00 | 0.00 | 0.00 | 42 | 1008.5 |
| 20260503210504 | 30 | 279 | 0.0 | 0.0 | 0.00 | 0.00 | 0.00 | 44 | 1008.5 |
| 20260503210004 | 29 | 220 | 0.0 | 0.0 | 0.00 | 0.00 | 0.00 | 44 | 1009.5 |
| 20260503205504 | 29 | 75 | 0.0 | 0.0 | 0.00 | 0.00 | 0.00 | 44 | 1009.5 |
| 20260503205004 | 28 | 155 | 0.0 | 0.0 | 0.00 | 0.00 | 0.00 | 45 | 1009.5 |
| 20260503204503 | 28 | 305 | 0.0 | 0.0 | 0.00 | 0.00 | 0.00 | 44 | 1009.5 |
| 20260503204004 | 28 | 35 | 0.0 | 0.0 | 0.00 | 0.00 | 0.00 | 45 | 1009.5 |
| 20260503203504 | 28 | 305 | 0.0 | 0.0 | 0.00 | 0.00 | 0.00 | 45 | 1009.5 |
| 20260503203005 | 28 | 35 | 0.0 | 0.0 | 0.00 | 0.00 | 0.00 | 46 | 1009.5 |
| 20260503202004 | 27 | 305 | 0.0 | 0.0 | 0.00 | 0.00 | 0.00 | 47 | 1009.5 |
| 20260503201504 | 27 | 320 | 0.0 | 0.0 | 0.00 | 0.00 | 0.00 | 47 | 1009.5 |
| 20260503201006 | 27 | 80 | 0.0 | 0.0 | 0.00 | 0.00 | 0.00 | 48 | 1009.5 |
| 20260503200504 | 27 | 41 | 0.0 | 0.0 | 0.00 | 0.00 | 0.00 | 49 | 1009.5 |
| 20260503200003 | 27 | 99 | 0.0 | 0.0 | 0.00 | 0.00 | 0.00 | 49 | 1009.5 |
| 20260503195504 | 27 | 87 | 0.0 | 0.0 | 0.00 | 0.00 | 0.00 | 50 | 1009.5 |
| 20260503195004 | 26 | 101 | 0.0 | 0.0 | 0.00 | 0.00 | 0.00 | 50 | 1009.5 |
| 20260503194504 | 26 | 35 | 0.0 | 0.0 | 0.00 | 0.00 | 0.00 | 51 | 1010.5 |
| 20260503194004 | 26 | 76 | 0.0 | 0.0 | 0.00 | 0.00 | 0.00 | 50 | 1010.5 |
| 20260503193504 | 26 | 75 | 0.0 | 0.0 | 0.00 | 0.00 | 0.00 | 51 | 1010.5 |
| 20260503192007 | 25 | 45 | 0.0 | 0.0 | 0.00 | 0.00 | 0.00 | 52 | 1010.5 |
| 20260503191509 | 25 | 47 | 0.0 | 0.0 | 0.00 | 0.00 | 0.00 | 52 | 1010.5 |
| 20260503191007 | 25 | 82 | 0.0 | 0.0 | 0.00 | 0.00 | 0.00 | 52 | 1010.5 |
| 20260503190507 | 24 | 223 | 0.0 | 0.0 | 0.00 | 0.00 | 0.00 | 55 | 1010.5 |
| 20260503190006 | 24 | 305 | 0.0 | 0.0 | 0.00 | 0.00 | 0.00 | 55 | 1010.5 |
| 20260503185506 | 24 | 229 | 0.0 | 0.0 | 0.00 | 0.00 | 0.00 | 55 | 1010.5 |
| 20260503185008 | 23 | 67 | 0.0 | 0.0 | 0.00 | 0.00 | 0.00 | 56 | 1010.5 |
| 20260503184506 | 23 | 305 | 0.0 | 0.0 | 0.00 | 0.00 | 0.00 | 57 | 1010.5 |
| 20260503184006 | 23 | 102 | 0.0 | 0.0 | 0.00 | 0.00 | 0.00 | 58 | 1010.5 |
| 20260503183506 | 23 | 30 | 0.0 | 0.0 | 0.00 | 0.00 | 0.00 | 58 | 1010.5 |
| 20260503183007 | 23 | 35 | 0.0 | 0.0 | 0.00 | 0.00 | 0.00 | 59 | 1010.5 |
| 20260503182506 | 23 | 116 | 0.0 | 0.0 | 0.00 | 0.00 | 0.00 | 59 | 1010.5 |
| 20260503182006 | 22 | 275 | 0.0 | 0.0 | 0.00 | 0.00 | 0.00 | 60 | 1010.5 |